Regional Weather Roundup
Issued by NWS

Home | Current Version | Previous Version | Graphics & Text | Print | Product List | Glossary On
Versions: 1 2 3 4 5 6 7 8 9 10 11 12 13 14 15 16 17 18 19 20 21 22 23 24 25 26 27 28 29 30 31 32 33 34 35 36 37 38 39 40 41 42 43 44 45 46 47 48 49 50
674
ASUS43 KDMX 271303
RWRIA

WEATHER ROUNDUP FOR IOWA
NATIONAL WEATHER SERVICE DES MOINES IA
800 AM CDT FRI MAY 27 2016

NOTE: "FAIR" INDICATES FEW OR NO CLOUDS BELOW 12,000 FEET WITH NO
SIGNIFICANT WEATHER AND/OR OBSTRUCTIONS TO VISIBILITY.

* - THESE STATIONS ARE NOT NWS STATIONS...THUS NOT UNDER NWS
QUALITY CONTROL.  THEY ALSO DO NOT REPORT WEATHER SUCH
AS PRECIPITATION OR FOG.

IAZ001>003-012>014-020>022-031>034-043>046-271400-
   NORTHWEST IOWA

CITY           SKY/WX    TMP DP  RH WIND       PRES   REMARKS
CARROLL *      CLOUDY    63  61  94 SE6       29.76R
CHEROKEE *     CLOUDY    61  59  94 E3        29.76R
LE MARS *      CLOUDY    63  57  82 VRB5G12   29.76R
ORANGE CITY *  CLOUDY    61  55  82 E6        29.76R
SHELDON *      CLOUDY    61  57  88 E5        29.75R
SIOUX CITY     CLOUDY    63  58  83 S6        29.77R
SPENCER        CLOUDY    60  57  89 E5        29.76F
STORM LAKE *   PTSUNNY   61  59  94 S8        29.77R
$$

IAZ055>058-069>071-079>083-090>094-271400-
   SOUTHWEST IOWA

CITY           SKY/WX    TMP DP  RH WIND       PRES   REMARKS
ATLANTIC *     MOSUNNY   63  59  88 CALM      29.75R
AUDUBON *        N/A     63  57  82 N3        29.77R
CLARINDA *       N/A     64  61  88 MISG      29.76R
COUNCIL BLFS * SUNNY     61  61 100 N7        29.76S
CRESTON *      CLOUDY    61  61 100 E13       29.75S FOG
HARLAN  *      PTSUNNY   63  59  88 E8        29.79R
LAMONI         CLOUDY    61  61 100 NE6       29.75R FOG
RED OAK *      CLOUDY    64  61  88 CALM      29.76R
SHENANDOAH *   CLOUDY    64  63  94 NE6       29.75R
$$

IAZ047>049-059>061-072>074-084-271400-
   CENTRAL IOWA

CITY           SKY/WX    TMP DP  RH WIND       PRES   REMARKS
AMES           CLOUDY    64  61  90 E5        29.77S
ANKENY *       CLOUDY    63  63 100 E6        29.75F
BOONE *        CLOUDY    63  61  94 E9        29.76S
CHARITON *     CLOUDY    63  61  94 E7        29.75S
DES MOINES     LGT RAIN  64  60  87 NE7       29.74F
GRINNELL*      CLOUDY    63  61  94 E7        29.79F
KNOXVILLE *    CLOUDY    63  61  94 E9G15     29.73F
MARSHALLTOWN   CLOUDY    64  61  90 E12       29.78F
NEWTON *       CLOUDY    63  63 100 E9        29.77F
PELLA *        CLOUDY    63  61  94 E6        29.77F
PERRY *        CLOUDY    64  63  94 E8        29.76F
$$

IAZ004>006-015-016-023>025-035-036-271400-
   NORTH CENTRAL IOWA

CITY           SKY/WX    TMP DP  RH WIND       PRES   REMARKS
ALGONA *       PTSUNNY   64  59  82 SE10      29.77F
CLARION *      CLOUDY    63  61  94 SE13      29.78F
ESTHERVILLE    CLOUDY    61  58  90 SE9       29.77S
FORT DODGE *   CLOUDY    63  55  77 E10       29.79R
MASON CITY     CLOUDY    65  60  84 SE13      29.82S
FOREST CITY *  CLOUDY    63  59  88 SE8       29.79F
WEBSTER CITY * CLOUDY    63  61  94 E14       29.76S
IOWA FALLS *   CLOUDY    64  61  88 E10       29.81R
$$

IAZ007>011-017>019-026>030-037>042-050>054-066-271400-
   NORTHEAST IOWA

CITY           SKY/WX    TMP DP  RH WIND       PRES   REMARKS
CEDAR RAPIDS   CLOUDY    65  62  90 E7        29.80F
CHARLES CITY * PTSUNNY   63  63 100 S5        29.83S FOG
CLINTON *      LGT RAIN  65  62  90 SE14      29.85S
DECORAH *      PTSUNNY   63  63 100 N5        29.81F
DUBUQUE        CLOUDY    65  62  90 E7        29.85R
MONTICELLO *   CLOUDY    68  61  77 SE3       29.83F
OELWEIN *      CLOUDY    64  63  94 SE5       29.83S
WATERLOO       CLOUDY    64  60  87 E6        29.80F
$$

IAZ064-065-067-068-078-271400-
   EAST CENTRAL IOWA

CITY           SKY/WX    TMP DP  RH WIND       PRES   REMARKS
DAVENPORT      CLOUDY    66  62  87 SE16      29.84S
IOWA CITY      CLOUDY    66  62  87 E5        29.82F
MT. PLEASANT * CLOUDY    68  68 100 SE16      29.81R
MUSCATINE *    CLOUDY    68  63  83 S12G20    29.82R
QUAD CITIES    CLOUDY    68  63  84 SE8       29.84R
$$

IAZ062-063-075>077-085>089-095>099-271400-
   SOUTHEAST IOWA

CITY           SKY/WX    TMP DP  RH WIND       PRES   REMARKS
BURLINGTON     CLOUDY    67  65  93 S14       29.82R
FAIRFIELD *      N/A    N/A N/A N/A MISG        N/A
FORT MADISON * PTSUNNY   66  64  94 S8        29.83R
KEOKUK *       CLOUDY    68  66  94 S10G24    29.81S
OSKALOOSA *    CLOUDY    63  61  94 E7        29.79S
OTTUMWA        CLOUDY    64  62  93 SE7       29.77F
WASHINGTON *   CLOUDY    66 -40   1 S10       29.81S
$$

ABBREVIATIONS USED IN REMARKS
   TC - TEMPERATURES IN CELSIUS
  WCI - WIND CHILL INDEX
   HX - HEAT INDEX
  VSB - VISIBILITY
$$





USA.gov is the U.S. government's official web portal to all federal, state and local government web resources and services.